Regional Weather Roundup
Issued by NWS Upton, NY

Current Version | Previous Version | Graphics & Text | Print | Product List | Glossary Off
Versions: 1 2 3 4 5 6 7 8 9 10 11 12 13 14 15 16 17 18 19 20 21 22 23 24 25 26 27 28 29 30 31 32 33 34 35 36 37 38 39 40 41 42 43 44 45 46 47 48 49 50

000
ASUS41 KOKX 221518
RWROKX

REGIONAL WEATHER ROUNDUP
NATIONAL WEATHER SERVICE NEW YORK NY
1100 AM EDT FRI MAY 22 2015

NOTE: "FAIR" INDICATES FEW OR NO CLOUDS BELOW 12,000 FEET WITH NO
SIGNIFICANT WEATHER AND/OR OBSTRUCTIONS TO VISIBILITY.

NYZ071-072-176-178-NJZ106-104-221600-
NEW YORK CITY METRO AREA


CITY           SKY/WX    TMP DP  RH WIND       PRES   REMARKS
CENTRAL PARK   SUNNY     68  38  33 VRB6G16   29.95S
LAGUARDIA APRT SUNNY     68  39  34 NW6       29.92S
KENNEDY INTL   MOSUNNY   71  38  29 W10G20    29.93S
NEWARK/LIBERTY MOSUNNY   71  40  32 NW12G20   29.93S
BRNX BOT. GARD   N/A     68  39  34 W9        29.94S
TETERBORO      SUNNY     70  40  33 NW10G20   29.92R
$$

NYZ177-179-078>081-221600-
LONG ISLAND NEW YORK

CITY           SKY/WX    TMP DP  RH WIND       PRES   REMARKS
FARMINGDALE    SUNNY     68  42  38 NW8G22    29.92S
ISLIP          SUNNY     68  40  35 NW12      29.90S
SHIRLEY        SUNNY     67  41  38 NW9       29.91S
WESTHAMPTON    SUNNY     67  41  38 NW9       29.91S
MONTAUK POINT    N/A     63  48  58 W9        29.89R
$$

NYZ052-065-067-221600-
HUDSON VALLEY

CITY           SKY/WX    TMP DP  RH WIND       PRES   REMARKS
WHITE PLAINS   SUNNY     65  42  43 NW13      29.91S
NEWBURGH       SUNNY     64  46  52 W16       29.92S
MONTGOMERY     SUNNY     66  43  43 W12       29.91S
POUGHKEEPSIE   SUNNY     66  44  45 VRB7      29.89F
ALBANY         MOSUNNY   65  40  39 W16G24    29.89R
$$

NJZ001-105-106-008-010-013-015-019>022-104-221600-
NEW JERSEY

CITY           SKY/WX    TMP DP  RH WIND       PRES   REMARKS
NEWARK/LIBERTY MOSUNNY   71  40  32 NW12G20   29.93S
TETERBORO      SUNNY     70  40  33 NW10G20   29.92R
CALDWELL       SUNNY     67  40  37 NW9       29.93S
MORRISTOWN     SUNNY     70  46  43 NW8       29.94S
SOMERVILLE     SUNNY     69  42  37 W6        29.93S
SUSSEX         SUNNY     66  39  37 W10G20    29.95R
ANDOVER          N/A     65  40  39 VRB7G20   29.95R
TRENTON        SUNNY     67  41  38 W10       29.97S
MILLVILLE      SUNNY     66  46  48 W12       30.03R
ATLANTIC CITY  SUNNY     66  46  48 NW15      30.01R
WRIGHTSTOWN    SUNNY     66  44  44 W10       29.97R
TOMS RIVER     SUNNY     66  45  45 W13       29.99R
BELMAR         SUNNY     66  45  45 W10       29.97R
$$

PAZ047>061-062-071-221600-
EASTERN PENNSYLVANIA

CITY           SKY/WX    TMP DP  RH WIND       PRES   REMARKS
PHILADELPHIA   SUNNY     68  41  37 W14G21    30.00S
ALLENTOWN      SUNNY     68  40  35 W15G22    29.98S
SCRANTON       MOSUNNY   61  42  49 SW10G16   29.97S
$$

CTZ002-004>006-009-010-012-RIZ004-006-007-MAZ004-011-015-221600-
SOUTHERN NEW ENGLAND
 IN CT

CITY           SKY/WX    TMP DP  RH WIND       PRES   REMARKS
BRADLEY INTL   MOSUNNY   69  40  34 NW12      29.85S
HARTFORD       SUNNY     68  39  34 VRB7      29.86S
DANBURY        SUNNY     65  39  38 NW10G17   29.91S
WTRBRY/OXFORD  MOSUNNY   64  41  42 N8G16     29.90S
BRIDGEPORT     SUNNY     64  45  49 S14       29.89S
MERIDEN        SUNNY     70  37  29 NW15G21   29.88R
NEW HAVEN      SUNNY     64  48  56 S9        29.89R
CHESTER        FAIR      66  37  34 NW5G16    29.88S
GROTON         SUNNY     69  40  34 NW10      29.86R
WILLIMANTIC    SUNNY     67  40  37 W7G21     29.86S

 IN RI

CITY           SKY/WX    TMP DP  RH WIND       PRES   REMARKS
PROVIDENCE     MOSUNNY   69  38  32 W12       29.84R
BLOCK ISLAND   SUNNY     61  48  63 W10       29.88R
WESTERLY       SUNNY     68  40  35 NW8G18    29.86S

 IN MA

CITY           SKY/WX    TMP DP  RH WIND       PRES   REMARKS
BOSTON         MOSUNNY   67  37  33 NW7       29.81S
WORCESTER      SUNNY     64  35  34 NW12G18   29.84S
WESTFIELD      SUNNY     69  37  30 NW14      29.85S
PROVINCETOWN   SUNNY     59  45  58 NW6       29.83S
NANTUCKET      MOSUNNY   57  49  74 NW6       29.85R
$$

ANZ330-335-338-340-345-350-353-355-221600-
COASTAL MARINE OBSERVATIONS


STATION/POSITION TIME  SKY/WX   TEMP    WIND        PRES    VSBY  WAVE
                                AIR SEA DIR/SP/G                  HT/PER
                 (UTC)          (F)     (DEG/KT/KT) (MB)    (MI)  (FT/S)
NY HARB ENTRANCE 1450            58 56  270/ 10/ 10 1013.7          1/ 3
4S FIRE IS       1403               54                N/A           1/ 8
20S FIRE ISLAND  1450            56 55  270/ 14/ 17 1013.6          2/ 4
GREAT SOUTH BAY  1415            62 63  280/  8/ 14   N/A
23SW MTP         1450            54 54  260/ 12/ 14 1012.1          1/ 8
HUDSON CANYON    NOT AVBL
KINGS POINT      1400            62 59  360/  5/  8 1012.6
CENTRAL LI SOUND 1445            56 53  240/ 12/ 14   N/A
EASTERN LI SOUND 1400            53     250/ 12/ 14   N/A
ROBBINS REEF     1400            62     280/ 13/ 16 1012.4
$$


>>>>>>>>>>>>>>>>>>>>>>>>>>>> KEY <<<<<<<<<<<<<<<<<<<<<<<<<<<
>                                                          <
>     SKY/WX - SKY CONDITION/PRESENT WEATHER               <
>     TMP    - TEMPERATURE IN FAHRENHEIT                   <
>     DP     - DEWPOINT IN FAHRENHEIT                      <
>     RH     - RELATIVE HUMIDITY IN PERCENT                <
>     WIND   - DIRECTION AND SPEED IN MPH                  <
>     PRES   - MEAN SEA LEVEL PRESSURE IN INCHES OF HG     <
>     WCI    - WIND CHILL INDEX                            <
>     VSB    - VISIBILITY IN MILES                         <
>     HX     - HEAT INDEX                                  <
>     TC     - TEMPERATURE IN CELSIUS                      <
>     VRB    - VARIABLE WIND DIRECTION                     <
>                                                          <
>>>>>>>>>>>>>>>>>>>>>>>>>>>> KEY <<<<<<<<<<<<<<<<<<<<<<<<<<<




USA.gov is the U.S. government's official web portal to all federal, state and local government web resources and services.